Year,Month,Day,Hour,Minute,Value (Times are PST for temperature in C)
2018,07,14,00,00,15.30
2018,07,14,00,01,15.30
2018,07,14,00,02,15.30
2018,07,14,00,03,15.20
2018,07,14,00,04,15.20
2018,07,14,00,05,15.20
2018,07,14,00,06,15.20
2018,07,14,00,07,15.10
2018,07,14,00,08,15.10
2018,07,14,00,09,15.10
2018,07,14,00,10,15.10
2018,07,14,00,11,15.10
2018,07,14,00,12,15.00
2018,07,14,00,13,15.00
2018,07,14,00,14,14.90
2018,07,14,00,15,14.90
2018,07,14,00,16,14.90
2018,07,14,00,17,14.80
2018,07,14,00,18,14.80
2018,07,14,00,19,14.80
2018,07,14,00,20,14.80
2018,07,14,00,21,14.70
2018,07,14,00,22,14.70
2018,07,14,00,23,14.70
2018,07,14,00,24,14.70
2018,07,14,00,25,14.60
2018,07,14,00,26,14.60
2018,07,14,00,27,14.60
2018,07,14,00,28,14.50
2018,07,14,00,29,14.50
2018,07,14,00,30,14.40
2018,07,14,00,31,14.40
2018,07,14,00,32,14.40
2018,07,14,00,33,14.30
2018,07,14,00,34,14.30
2018,07,14,00,35,14.30
2018,07,14,00,36,14.30
2018,07,14,00,37,14.30
2018,07,14,00,38,14.20
2018,07,14,00,39,14.20
2018,07,14,00,40,14.20
2018,07,14,00,41,14.20
2018,07,14,00,42,14.20
2018,07,14,00,43,14.20
2018,07,14,00,44,14.20
2018,07,14,00,45,14.20
2018,07,14,00,46,14.10
2018,07,14,00,47,14.10
2018,07,14,00,48,14.10
2018,07,14,00,49,14.10
2018,07,14,00,50,14.00
2018,07,14,00,51,14.00
2018,07,14,00,52,14.00
2018,07,14,00,53,14.00
2018,07,14,00,54,13.90
2018,07,14,00,55,13.90
2018,07,14,00,56,13.90
2018,07,14,00,57,13.90
2018,07,14,00,58,13.90
2018,07,14,00,59,13.90
2018,07,14,01,00,13.90
2018,07,14,01,01,13.90
2018,07,14,01,02,13.90
2018,07,14,01,03,13.90
2018,07,14,01,04,13.90
2018,07,14,01,05,13.90
2018,07,14,01,06,13.80
2018,07,14,01,07,13.80
2018,07,14,01,08,13.80
2018,07,14,01,09,13.80
2018,07,14,01,10,13.80
2018,07,14,01,11,13.80
2018,07,14,01,12,13.80
2018,07,14,01,13,13.70
2018,07,14,01,14,13.70
2018,07,14,01,15,13.70
2018,07,14,01,16,13.70
2018,07,14,01,17,13.70
2018,07,14,01,18,13.70
2018,07,14,01,19,13.70
2018,07,14,01,20,13.60
2018,07,14,01,21,13.60
2018,07,14,01,22,13.60
2018,07,14,01,23,13.60
2018,07,14,01,24,13.60
2018,07,14,01,25,13.60
2018,07,14,01,26,13.60
2018,07,14,01,27,13.60
2018,07,14,01,28,13.50
2018,07,14,01,29,13.50
2018,07,14,01,30,13.50
2018,07,14,01,31,13.50
2018,07,14,01,32,13.40
2018,07,14,01,33,13.40
2018,07,14,01,34,13.40
2018,07,14,01,35,13.40
2018,07,14,01,36,13.40
2018,07,14,01,37,13.40
2018,07,14,01,38,13.40
2018,07,14,01,39,13.40
2018,07,14,01,40,13.40
2018,07,14,01,41,13.40
2018,07,14,01,42,13.40
2018,07,14,01,43,13.40
2018,07,14,01,44,13.40
2018,07,14,01,45,13.40
2018,07,14,01,46,13.40
2018,07,14,01,47,13.40
2018,07,14,01,48,13.40
2018,07,14,01,49,13.30
2018,07,14,01,50,13.30
2018,07,14,01,51,13.30
2018,07,14,01,52,13.30
2018,07,14,01,53,13.30
2018,07,14,01,54,13.30
2018,07,14,01,55,13.20
2018,07,14,01,56,13.20
2018,07,14,01,57,13.20
2018,07,14,01,58,13.20
2018,07,14,01,59,13.20
2018,07,14,02,00,13.20
2018,07,14,02,01,13.10
2018,07,14,02,02,13.10
2018,07,14,02,03,13.10
2018,07,14,02,04,13.10
2018,07,14,02,05,13.10
2018,07,14,02,06,13.10
2018,07,14,02,07,13.10
2018,07,14,02,08,13.10
2018,07,14,02,09,13.10
2018,07,14,02,10,13.10
2018,07,14,02,11,13.10
2018,07,14,02,12,13.10
2018,07,14,02,13,13.10
2018,07,14,02,14,13.10
2018,07,14,02,15,13.10
2018,07,14,02,16,13.00
2018,07,14,02,17,13.00
2018,07,14,02,18,13.00
2018,07,14,02,19,13.00
2018,07,14,02,20,13.00
2018,07,14,02,21,13.00
2018,07,14,02,22,12.90
2018,07,14,02,23,12.90
2018,07,14,02,24,12.90
2018,07,14,02,25,12.90
2018,07,14,02,26,12.90
2018,07,14,02,27,12.90
2018,07,14,02,28,12.90
2018,07,14,02,29,12.90
2018,07,14,02,30,12.90
2018,07,14,02,31,12.90
2018,07,14,02,32,12.80
2018,07,14,02,33,12.80
2018,07,14,02,34,12.80
2018,07,14,02,35,12.80
2018,07,14,02,36,12.80
2018,07,14,02,37,12.80
2018,07,14,02,38,12.80
2018,07,14,02,39,12.80
2018,07,14,02,40,12.80
2018,07,14,02,41,12.80
2018,07,14,02,42,12.80
2018,07,14,02,43,12.80
2018,07,14,02,44,12.80
2018,07,14,02,45,12.70
2018,07,14,02,46,12.80
2018,07,14,02,47,12.80
2018,07,14,02,48,12.80
2018,07,14,02,49,12.80
2018,07,14,02,50,12.80
2018,07,14,02,51,12.80
2018,07,14,02,52,12.80
2018,07,14,02,53,12.70
2018,07,14,02,54,12.70
2018,07,14,02,55,12.70
2018,07,14,02,56,12.70
2018,07,14,02,57,12.70
2018,07,14,02,58,12.70
2018,07,14,02,59,12.70
2018,07,14,03,00,12.70
2018,07,14,03,01,12.70
2018,07,14,03,02,12.70
2018,07,14,03,03,12.70
2018,07,14,03,04,12.70
2018,07,14,03,05,12.70
2018,07,14,03,06,12.70
2018,07,14,03,07,12.70
2018,07,14,03,08,12.70
2018,07,14,03,09,12.70
2018,07,14,03,10,12.70
2018,07,14,03,11,12.70
2018,07,14,03,12,12.60
2018,07,14,03,13,12.60
2018,07,14,03,14,12.60
2018,07,14,03,15,12.60
2018,07,14,03,16,12.60
2018,07,14,03,17,12.60
2018,07,14,03,18,12.60
2018,07,14,03,19,12.60
2018,07,14,03,20,12.60
2018,07,14,03,21,12.60
2018,07,14,03,22,12.60
2018,07,14,03,23,12.60
2018,07,14,03,24,12.60
2018,07,14,03,25,12.60
2018,07,14,03,26,12.60
2018,07,14,03,27,12.50
2018,07,14,03,28,12.50
2018,07,14,03,29,12.50
2018,07,14,03,30,12.50
2018,07,14,03,31,12.40
2018,07,14,03,32,12.40
2018,07,14,03,33,12.40
2018,07,14,03,34,12.40
2018,07,14,03,35,12.40
2018,07,14,03,36,12.40
2018,07,14,03,37,12.40
2018,07,14,03,38,12.40
2018,07,14,03,39,12.40
2018,07,14,03,40,12.40
2018,07,14,03,41,12.40
2018,07,14,03,42,12.30
2018,07,14,03,43,12.30
2018,07,14,03,44,12.30
2018,07,14,03,45,12.30
2018,07,14,03,46,12.30
2018,07,14,03,47,12.30
2018,07,14,03,48,12.30
2018,07,14,03,49,12.30
2018,07,14,03,50,12.30
2018,07,14,03,51,12.20
2018,07,14,03,52,12.20
2018,07,14,03,53,12.20
2018,07,14,03,54,12.20
2018,07,14,03,55,12.20
2018,07,14,03,56,12.20
2018,07,14,03,57,12.20
2018,07,14,03,58,12.20
2018,07,14,03,59,12.10
2018,07,14,04,00,12.10
2018,07,14,04,01,12.10
2018,07,14,04,02,12.10
2018,07,14,04,03,12.10
2018,07,14,04,04,12.10
2018,07,14,04,05,12.10
2018,07,14,04,06,12.10
2018,07,14,04,07,12.10
2018,07,14,04,08,12.10
2018,07,14,04,09,12.10
2018,07,14,04,10,12.10
2018,07,14,04,11,12.00
2018,07,14,04,12,12.00
2018,07,14,04,13,12.00
2018,07,14,04,14,11.90
2018,07,14,04,15,11.90
2018,07,14,04,16,11.90
2018,07,14,04,17,11.90
2018,07,14,04,18,11.90
2018,07,14,04,19,11.90
2018,07,14,04,20,11.80
2018,07,14,04,21,11.80
2018,07,14,04,22,11.80
2018,07,14,04,23,11.80
2018,07,14,04,24,11.80
2018,07,14,04,25,11.80
2018,07,14,04,26,11.80
2018,07,14,04,27,11.70
2018,07,14,04,28,11.70
2018,07,14,04,29,11.70
2018,07,14,04,30,11.70
2018,07,14,04,31,11.70
2018,07,14,04,32,11.70
2018,07,14,04,33,11.70
2018,07,14,04,34,11.70
2018,07,14,04,35,11.70
2018,07,14,04,36,11.70
2018,07,14,04,37,11.70
2018,07,14,04,38,11.70
2018,07,14,04,39,11.70
2018,07,14,04,40,11.70
2018,07,14,04,41,11.70
2018,07,14,04,42,11.70
2018,07,14,04,43,11.70
2018,07,14,04,44,11.70
2018,07,14,04,45,11.70
2018,07,14,04,46,11.70
2018,07,14,04,47,11.70
2018,07,14,04,48,11.70
2018,07,14,04,49,11.70
2018,07,14,04,50,11.60
2018,07,14,04,51,11.60
2018,07,14,04,52,11.60
2018,07,14,04,53,11.60
2018,07,14,04,54,11.60
2018,07,14,04,55,11.60
2018,07,14,04,56,11.60
2018,07,14,04,57,11.50
2018,07,14,04,58,11.50
2018,07,14,04,59,11.50
2018,07,14,05,00,11.50
2018,07,14,05,01,11.50
2018,07,14,05,02,11.50
2018,07,14,05,03,11.40
2018,07,14,05,04,11.40
2018,07,14,05,05,11.40
2018,07,14,05,06,11.40
2018,07,14,05,07,11.40
2018,07,14,05,08,11.40
2018,07,14,05,09,11.30
2018,07,14,05,10,11.30
2018,07,14,05,11,11.30
2018,07,14,05,12,11.40
2018,07,14,05,13,11.40
2018,07,14,05,14,11.40
2018,07,14,05,15,11.30
2018,07,14,05,16,11.30
2018,07,14,05,17,11.30
2018,07,14,05,18,11.30
2018,07,14,05,19,11.30
2018,07,14,05,20,11.20
2018,07,14,05,21,11.20
2018,07,14,05,22,11.20
2018,07,14,05,23,11.20
2018,07,14,05,24,11.20
2018,07,14,05,25,11.20
2018,07,14,05,26,11.20
2018,07,14,05,27,11.10
2018,07,14,05,28,11.10
2018,07,14,05,29,11.10
2018,07,14,05,30,11.10
2018,07,14,05,31,11.10
2018,07,14,05,32,11.10
2018,07,14,05,33,11.10
2018,07,14,05,34,11.10
2018,07,14,05,35,11.10
2018,07,14,05,36,11.10
2018,07,14,05,37,11.20
2018,07,14,05,38,11.20
2018,07,14,05,39,11.10
2018,07,14,05,40,11.10
2018,07,14,05,41,11.10
2018,07,14,05,42,11.10
2018,07,14,05,43,11.20
2018,07,14,05,44,11.20
2018,07,14,05,45,11.20
2018,07,14,05,46,11.20
2018,07,14,05,47,11.20
2018,07,14,05,48,11.10
2018,07,14,05,49,11.10
2018,07,14,05,50,11.10
2018,07,14,05,51,11.10
2018,07,14,05,52,11.10
2018,07,14,05,53,11.00
2018,07,14,05,54,11.00
2018,07,14,05,55,11.00
2018,07,14,05,56,11.00
2018,07,14,05,57,11.00
2018,07,14,05,58,11.00
2018,07,14,05,59,11.00
2018,07,14,06,00,11.00
2018,07,14,06,01,11.00
2018,07,14,06,02,11.10
2018,07,14,06,03,11.10
2018,07,14,06,04,11.10
2018,07,14,06,05,11.10
2018,07,14,06,06,11.10
2018,07,14,06,07,11.10
2018,07,14,06,08,11.10
2018,07,14,06,09,11.10
2018,07,14,06,10,11.10
2018,07,14,06,11,11.10
2018,07,14,06,12,11.10
2018,07,14,06,13,11.10
2018,07,14,06,14,11.10
2018,07,14,06,15,11.10
2018,07,14,06,16,11.10
2018,07,14,06,17,11.10
2018,07,14,06,18,11.20
2018,07,14,06,19,11.20
2018,07,14,06,20,11.20
2018,07,14,06,21,11.20
2018,07,14,06,22,11.20
2018,07,14,06,23,11.20
2018,07,14,06,24,11.20
2018,07,14,06,25,11.20
2018,07,14,06,26,11.20
2018,07,14,06,27,11.20
2018,07,14,06,28,11.20
2018,07,14,06,29,11.20
2018,07,14,06,30,11.20
2018,07,14,06,31,11.30
2018,07,14,06,32,11.30
2018,07,14,06,33,11.30
2018,07,14,06,34,11.30
2018,07,14,06,35,11.40
2018,07,14,06,36,11.40
2018,07,14,06,37,11.50
2018,07,14,06,38,11.60
2018,07,14,06,39,11.60
2018,07,14,06,40,11.70
2018,07,14,06,41,11.70
2018,07,14,06,42,11.70
2018,07,14,06,43,11.80
2018,07,14,06,44,11.80
2018,07,14,06,45,11.90
2018,07,14,06,46,11.90
2018,07,14,06,47,12.00
2018,07,14,06,48,12.10
2018,07,14,06,49,12.10
2018,07,14,06,50,12.10
2018,07,14,06,51,12.20
2018,07,14,06,52,12.30
2018,07,14,06,53,12.40
2018,07,14,06,54,12.50
2018,07,14,06,55,12.60
2018,07,14,06,56,12.70
2018,07,14,06,57,12.80
2018,07,14,06,58,12.90
2018,07,14,06,59,13.00
2018,07,14,07,00,13.10
2018,07,14,07,01,13.10
2018,07,14,07,02,13.20
2018,07,14,07,03,13.30
2018,07,14,07,04,13.30
2018,07,14,07,05,13.40
2018,07,14,07,06,13.50
2018,07,14,07,07,13.60
2018,07,14,07,08,13.70
2018,07,14,07,09,13.80
2018,07,14,07,10,13.80
2018,07,14,07,11,13.90
2018,07,14,07,12,14.00
2018,07,14,07,13,14.10
2018,07,14,07,14,14.20
2018,07,14,07,15,14.20
2018,07,14,07,16,14.30
2018,07,14,07,17,14.40
2018,07,14,07,18,14.50
2018,07,14,07,19,14.60
2018,07,14,07,20,14.70
2018,07,14,07,21,14.80
2018,07,14,07,22,14.90
2018,07,14,07,23,15.00
2018,07,14,07,24,15.10
2018,07,14,07,25,15.20
2018,07,14,07,26,15.30
2018,07,14,07,27,15.40
2018,07,14,07,28,15.50
2018,07,14,07,29,15.60
2018,07,14,07,30,15.70
2018,07,14,07,31,15.80
2018,07,14,07,32,16.00
2018,07,14,07,33,16.10
2018,07,14,07,34,16.30
2018,07,14,07,35,16.40
2018,07,14,07,36,16.50
2018,07,14,07,37,16.70
2018,07,14,07,38,16.80
2018,07,14,07,39,17.00
2018,07,14,07,40,17.10
2018,07,14,07,41,17.20
2018,07,14,07,42,17.30
2018,07,14,07,43,17.50
2018,07,14,07,44,17.60
2018,07,14,07,45,17.80
2018,07,14,07,46,17.90
2018,07,14,07,47,18.00
2018,07,14,07,48,18.10
2018,07,14,07,49,18.20
2018,07,14,07,50,18.30
2018,07,14,07,51,18.40
2018,07,14,07,52,18.50
2018,07,14,07,53,18.60
2018,07,14,07,54,18.70
2018,07,14,07,55,18.80
2018,07,14,07,56,18.90
2018,07,14,07,57,19.00
2018,07,14,07,58,19.10
2018,07,14,07,59,19.10
2018,07,14,08,00,19.20
2018,07,14,08,01,19.20
2018,07,14,08,02,19.30
2018,07,14,08,03,19.30
2018,07,14,08,04,19.30
2018,07,14,08,05,19.40
2018,07,14,08,06,19.40
2018,07,14,08,07,19.50
2018,07,14,08,08,19.50
2018,07,14,08,09,19.50
2018,07,14,08,10,19.60
2018,07,14,08,11,19.60
2018,07,14,08,12,19.70
2018,07,14,08,13,19.70
2018,07,14,08,14,19.80
2018,07,14,08,15,19.80
2018,07,14,08,16,19.90
2018,07,14,08,17,19.90
2018,07,14,08,18,20.00
2018,07,14,08,19,20.10
2018,07,14,08,20,20.20
2018,07,14,08,21,20.20
2018,07,14,08,22,20.30
2018,07,14,08,23,20.30
2018,07,14,08,24,20.30
2018,07,14,08,25,20.30
2018,07,14,08,26,20.30
2018,07,14,08,27,20.20
2018,07,14,08,28,20.20
2018,07,14,08,29,20.20
2018,07,14,08,30,20.20
2018,07,14,08,31,20.20
2018,07,14,08,32,20.20
2018,07,14,08,33,20.20
2018,07,14,08,34,20.20
2018,07,14,08,35,20.20
2018,07,14,08,36,20.20
2018,07,14,08,37,20.20
2018,07,14,08,38,20.20
2018,07,14,08,39,20.30
2018,07,14,08,40,20.30
2018,07,14,08,41,20.40
2018,07,14,08,42,20.40
2018,07,14,08,43,20.50
2018,07,14,08,44,20.50
2018,07,14,08,45,20.50
2018,07,14,08,46,20.50
2018,07,14,08,47,20.50
2018,07,14,08,48,20.60
2018,07,14,08,49,20.70
2018,07,14,08,50,20.70
2018,07,14,08,51,20.80
2018,07,14,08,52,20.90
2018,07,14,08,53,21.00
2018,07,14,08,54,21.00
2018,07,14,08,55,21.10
2018,07,14,08,56,21.20
2018,07,14,08,57,21.20
2018,07,14,08,58,21.30
2018,07,14,08,59,21.40
2018,07,14,09,00,21.50
2018,07,14,09,01,21.60
2018,07,14,09,02,21.70
2018,07,14,09,03,21.80
2018,07,14,09,04,21.80
2018,07,14,09,05,21.90
2018,07,14,09,06,21.90
2018,07,14,09,07,22.00
2018,07,14,09,08,22.10
2018,07,14,09,09,22.10
2018,07,14,09,10,22.10
2018,07,14,09,11,22.20
2018,07,14,09,12,22.20
2018,07,14,09,13,22.30
2018,07,14,09,14,22.30
2018,07,14,09,15,22.20
2018,07,14,09,16,22.20
2018,07,14,09,17,22.10
2018,07,14,09,18,22.20
2018,07,14,09,19,22.20
2018,07,14,09,20,22.20
2018,07,14,09,21,22.30
2018,07,14,09,22,22.30
2018,07,14,09,23,22.30
2018,07,14,09,24,22.30
2018,07,14,09,25,22.30
2018,07,14,09,26,22.40
2018,07,14,09,27,22.50
2018,07,14,09,28,22.60
2018,07,14,09,29,22.70
2018,07,14,09,30,22.70
2018,07,14,09,31,22.60
2018,07,14,09,32,22.60
2018,07,14,09,33,22.70
2018,07,14,09,34,22.70
2018,07,14,09,35,22.80
2018,07,14,09,36,22.80
2018,07,14,09,37,22.80
2018,07,14,09,38,22.70
2018,07,14,09,39,22.70
2018,07,14,09,40,22.60
2018,07,14,09,41,22.70
2018,07,14,09,42,22.70
2018,07,14,09,43,22.80
2018,07,14,09,44,22.90
2018,07,14,09,45,23.00
2018,07,14,09,46,23.10
2018,07,14,09,47,23.10
2018,07,14,09,48,23.30
2018,07,14,09,49,23.40
2018,07,14,09,50,23.40
2018,07,14,09,51,23.40
2018,07,14,09,52,23.40
2018,07,14,09,53,23.40
2018,07,14,09,54,23.40
2018,07,14,09,55,23.40
2018,07,14,09,56,23.40
2018,07,14,09,57,23.50
2018,07,14,09,58,23.60
2018,07,14,09,59,23.70
2018,07,14,10,00,23.70
2018,07,14,10,01,23.80
2018,07,14,10,02,24.00
2018,07,14,10,03,24.10
2018,07,14,10,04,24.20
2018,07,14,10,05,24.20
2018,07,14,10,06,24.20
2018,07,14,10,07,24.20
2018,07,14,10,08,24.20
2018,07,14,10,09,24.30
2018,07,14,10,10,24.20
2018,07,14,10,11,24.30
2018,07,14,10,12,24.30
2018,07,14,10,13,24.40
2018,07,14,10,14,24.50
2018,07,14,10,15,24.60
2018,07,14,10,16,24.70
2018,07,14,10,17,24.80
2018,07,14,10,18,24.90
2018,07,14,10,19,24.90
2018,07,14,10,20,24.80
2018,07,14,10,21,24.80
2018,07,14,10,22,24.80
2018,07,14,10,23,24.80
2018,07,14,10,24,24.80
2018,07,14,10,25,24.80
2018,07,14,10,26,24.80
2018,07,14,10,27,24.90
2018,07,14,10,28,24.90
2018,07,14,10,29,25.00
2018,07,14,10,30,25.10
2018,07,14,10,31,25.20
2018,07,14,10,32,25.30
2018,07,14,10,33,25.40
2018,07,14,10,34,25.50
2018,07,14,10,35,25.50
2018,07,14,10,36,25.60
2018,07,14,10,37,25.60
2018,07,14,10,38,25.70
2018,07,14,10,39,25.70
2018,07,14,10,40,25.60
2018,07,14,10,41,25.70
2018,07,14,10,42,25.80
2018,07,14,10,43,25.80
2018,07,14,10,44,25.90
2018,07,14,10,45,26.00
2018,07,14,10,46,26.10
2018,07,14,10,47,26.10
2018,07,14,10,48,26.10
2018,07,14,10,49,26.10
2018,07,14,10,50,26.10
2018,07,14,10,51,26.10
2018,07,14,10,52,26.10
2018,07,14,10,53,26.00
2018,07,14,10,54,25.90
2018,07,14,10,55,25.90
2018,07,14,10,56,25.90
2018,07,14,10,57,25.90
2018,07,14,10,58,25.90
2018,07,14,10,59,25.90
2018,07,14,11,00,25.90
2018,07,14,11,01,25.80
2018,07,14,11,02,25.70
2018,07,14,11,03,25.60
2018,07,14,11,04,25.50
2018,07,14,11,05,25.50
2018,07,14,11,06,25.40
2018,07,14,11,07,25.40
2018,07,14,11,08,25.30
2018,07,14,11,09,25.30
2018,07,14,11,10,25.30
2018,07,14,11,11,25.30
2018,07,14,11,12,25.30
2018,07,14,11,13,25.30
2018,07,14,11,14,25.30
2018,07,14,11,15,25.30
2018,07,14,11,16,25.40
2018,07,14,11,17,25.40
2018,07,14,11,18,25.50
2018,07,14,11,19,25.60
2018,07,14,11,20,25.60
2018,07,14,11,21,25.70
2018,07,14,11,22,25.70
2018,07,14,11,23,25.70
2018,07,14,11,24,25.80
2018,07,14,11,25,25.80
2018,07,14,11,26,25.80
2018,07,14,11,27,25.70
2018,07,14,11,28,25.70
2018,07,14,11,29,25.70
2018,07,14,11,30,25.70
2018,07,14,11,31,25.70
2018,07,14,11,32,25.70
2018,07,14,11,33,25.70
2018,07,14,11,34,25.70
2018,07,14,11,35,25.70
2018,07,14,11,36,25.70
2018,07,14,11,37,25.70
2018,07,14,11,38,25.70
2018,07,14,11,39,25.70
2018,07,14,11,40,25.80
2018,07,14,11,41,25.80
2018,07,14,11,42,25.80
2018,07,14,11,43,25.80
2018,07,14,11,44,25.80
2018,07,14,11,45,25.80
2018,07,14,11,46,25.70
2018,07,14,11,47,25.50
2018,07,14,11,48,25.30
2018,07,14,11,49,25.20
2018,07,14,11,50,25.10
2018,07,14,11,51,25.10
2018,07,14,11,52,25.10
2018,07,14,11,53,25.20
2018,07,14,11,54,25.30
2018,07,14,11,55,25.30
2018,07,14,11,56,25.40
2018,07,14,11,57,25.40
2018,07,14,11,58,25.50
2018,07,14,11,59,25.50
2018,07,14,12,00,25.50
2018,07,14,12,01,25.40
2018,07,14,12,02,25.40
2018,07,14,12,03,25.40
2018,07,14,12,04,25.40
2018,07,14,12,05,25.40
2018,07,14,12,06,25.50
2018,07,14,12,07,25.50
2018,07,14,12,08,25.60
2018,07,14,12,09,25.80
2018,07,14,12,10,25.90
2018,07,14,12,11,26.00
2018,07,14,12,12,26.10
2018,07,14,12,13,26.20
2018,07,14,12,14,26.20
2018,07,14,12,15,26.30
2018,07,14,12,16,26.40
2018,07,14,12,17,26.40
2018,07,14,12,18,26.40
2018,07,14,12,19,26.50
2018,07,14,12,20,26.50
2018,07,14,12,21,26.50
2018,07,14,12,22,26.60
2018,07,14,12,23,26.60
2018,07,14,12,24,26.70
2018,07,14,12,25,26.70
2018,07,14,12,26,26.70
2018,07,14,12,27,26.80
2018,07,14,12,28,26.90
2018,07,14,12,29,26.90
2018,07,14,12,30,26.90
2018,07,14,12,31,26.90
2018,07,14,12,32,26.90
2018,07,14,12,33,27.00
2018,07,14,12,34,27.00
2018,07,14,12,35,27.00
2018,07,14,12,36,27.00
2018,07,14,12,37,27.10
2018,07,14,12,38,27.10
2018,07,14,12,39,27.20
2018,07,14,12,40,27.20
2018,07,14,12,41,27.30
2018,07,14,12,42,27.40
2018,07,14,12,43,27.40
2018,07,14,12,44,27.50
2018,07,14,12,45,27.60
2018,07,14,12,46,27.60
2018,07,14,12,47,27.50
2018,07,14,12,48,27.50
2018,07,14,12,49,27.50
2018,07,14,12,50,27.60
2018,07,14,12,51,27.60
2018,07,14,12,52,27.60
2018,07,14,12,53,27.50
2018,07,14,12,54,27.50
2018,07,14,12,55,27.50
2018,07,14,12,56,27.50
2018,07,14,12,57,27.40
2018,07,14,12,58,27.40
2018,07,14,12,59,27.50
2018,07,14,13,00,27.60
2018,07,14,13,01,27.70
2018,07,14,13,02,27.80
2018,07,14,13,03,27.80
2018,07,14,13,04,27.90
2018,07,14,13,05,28.00
2018,07,14,13,06,28.10
2018,07,14,13,07,28.10
2018,07,14,13,08,28.20
2018,07,14,13,09,28.20
2018,07,14,13,10,28.20
2018,07,14,13,11,28.20
2018,07,14,13,12,28.20
2018,07,14,13,13,28.20
2018,07,14,13,14,28.20
2018,07,14,13,15,28.20
2018,07,14,13,16,28.20
2018,07,14,13,17,28.20
2018,07,14,13,18,28.20
2018,07,14,13,19,28.20
2018,07,14,13,20,28.30
2018,07,14,13,21,28.30
2018,07,14,13,22,28.30
2018,07,14,13,23,28.30
2018,07,14,13,24,28.30
2018,07,14,13,25,28.30
2018,07,14,13,26,28.30
2018,07,14,13,27,28.30
2018,07,14,13,28,28.30
2018,07,14,13,29,28.40
2018,07,14,13,30,28.40
2018,07,14,13,31,28.30
2018,07,14,13,32,28.30
2018,07,14,13,33,28.30
2018,07,14,13,34,28.30
2018,07,14,13,35,28.40
2018,07,14,13,36,28.50
2018,07,14,13,37,28.60
2018,07,14,13,38,28.70
2018,07,14,13,39,28.70
2018,07,14,13,40,28.80
2018,07,14,13,41,28.90
2018,07,14,13,42,28.90
2018,07,14,13,43,28.90
2018,07,14,13,44,28.80
2018,07,14,13,45,28.80
2018,07,14,13,46,28.80
2018,07,14,13,47,28.80
2018,07,14,13,48,28.80
2018,07,14,13,49,28.80
2018,07,14,13,50,28.80
2018,07,14,13,51,28.70
2018,07,14,13,52,28.60
2018,07,14,13,53,28.60
2018,07,14,13,54,28.50
2018,07,14,13,55,28.50
2018,07,14,13,56,28.50
2018,07,14,13,57,28.50
2018,07,14,13,58,28.50
2018,07,14,13,59,28.60
2018,07,14,14,00,28.50
2018,07,14,14,01,28.50
2018,07,14,14,02,28.50
2018,07,14,14,03,28.60
2018,07,14,14,04,28.60
2018,07,14,14,05,28.70
2018,07,14,14,06,28.80
2018,07,14,14,07,28.80
2018,07,14,14,08,28.80
2018,07,14,14,09,28.90
2018,07,14,14,10,28.90
2018,07,14,14,11,29.00
2018,07,14,14,12,29.10
2018,07,14,14,13,29.10
2018,07,14,14,14,29.10
2018,07,14,14,15,29.10
2018,07,14,14,16,29.10
2018,07,14,14,17,29.10
2018,07,14,14,18,29.10
2018,07,14,14,19,29.10
2018,07,14,14,20,29.10
2018,07,14,14,21,29.10
2018,07,14,14,22,29.20
2018,07,14,14,23,29.20
2018,07,14,14,24,29.20
2018,07,14,14,25,29.20
2018,07,14,14,26,29.30
2018,07,14,14,27,29.30
2018,07,14,14,28,29.40
2018,07,14,14,29,29.40
2018,07,14,14,30,29.40
2018,07,14,14,31,29.40
2018,07,14,14,32,29.40
2018,07,14,14,33,29.30
2018,07,14,14,34,29.30
2018,07,14,14,35,29.30
2018,07,14,14,36,29.20
2018,07,14,14,37,29.20
2018,07,14,14,38,29.20
2018,07,14,14,39,29.30
2018,07,14,14,40,29.30
2018,07,14,14,41,29.30
2018,07,14,14,42,29.30
2018,07,14,14,43,29.30
2018,07,14,14,44,29.30
2018,07,14,14,45,29.30
2018,07,14,14,46,29.30
2018,07,14,14,47,29.30
2018,07,14,14,48,29.30
2018,07,14,14,49,29.30
2018,07,14,14,50,29.20
2018,07,14,14,51,29.20
2018,07,14,14,52,29.20
2018,07,14,14,53,29.20
2018,07,14,14,54,29.20
2018,07,14,14,55,29.10
2018,07,14,14,56,29.10
2018,07,14,14,57,29.00
2018,07,14,14,58,29.00
2018,07,14,14,59,28.90
2018,07,14,15,00,28.90
2018,07,14,15,01,28.90
2018,07,14,15,02,28.90
2018,07,14,15,03,28.90
2018,07,14,15,04,29.00
2018,07,14,15,05,29.00
2018,07,14,15,06,29.00
2018,07,14,15,07,29.10
2018,07,14,15,08,29.10
2018,07,14,15,09,29.10
2018,07,14,15,10,29.20
2018,07,14,15,11,29.20
2018,07,14,15,12,29.30
2018,07,14,15,13,29.30
2018,07,14,15,14,29.30
2018,07,14,15,15,29.30
2018,07,14,15,16,29.40
2018,07,14,15,17,29.40
2018,07,14,15,18,29.40
2018,07,14,15,19,29.40
2018,07,14,15,20,29.40
2018,07,14,15,21,29.40
2018,07,14,15,22,29.40
2018,07,14,15,23,29.40
2018,07,14,15,24,29.40
2018,07,14,15,25,29.50
2018,07,14,15,26,29.50
2018,07,14,15,27,29.60
2018,07,14,15,28,29.70
2018,07,14,15,29,29.70
2018,07,14,15,30,29.70
2018,07,14,15,31,29.80
2018,07,14,15,32,29.80
2018,07,14,15,33,29.70
2018,07,14,15,34,29.60
2018,07,14,15,35,29.50
2018,07,14,15,36,29.50
2018,07,14,15,37,29.50
2018,07,14,15,38,29.50
2018,07,14,15,39,29.60
2018,07,14,15,40,29.60
2018,07,14,15,41,29.60
2018,07,14,15,42,29.60
2018,07,14,15,43,29.60
2018,07,14,15,44,29.70
2018,07,14,15,45,29.80
2018,07,14,15,46,29.90
2018,07,14,15,47,29.90
2018,07,14,15,48,30.00
2018,07,14,15,49,30.10
2018,07,14,15,50,30.20
2018,07,14,15,51,30.20
2018,07,14,15,52,30.30
2018,07,14,15,53,30.20
2018,07,14,15,54,30.10
2018,07,14,15,55,30.10
2018,07,14,15,56,30.00
2018,07,14,15,57,30.00
2018,07,14,15,58,29.90
2018,07,14,15,59,29.90
2018,07,14,16,00,29.90
2018,07,14,16,01,29.90
2018,07,14,16,02,29.90
2018,07,14,16,03,29.90
2018,07,14,16,04,29.90
2018,07,14,16,05,30.00
2018,07,14,16,06,30.00
2018,07,14,16,07,30.10
2018,07,14,16,08,30.20
2018,07,14,16,09,30.20
2018,07,14,16,10,30.20
2018,07,14,16,11,30.10
2018,07,14,16,12,30.10
2018,07,14,16,13,30.10
2018,07,14,16,14,30.10
2018,07,14,16,15,30.10
2018,07,14,16,16,30.10
2018,07,14,16,17,30.20
2018,07,14,16,18,30.20
2018,07,14,16,19,30.30
2018,07,14,16,20,30.30
2018,07,14,16,21,30.20
2018,07,14,16,22,30.20
2018,07,14,16,23,30.10
2018,07,14,16,24,30.10
2018,07,14,16,25,30.10
2018,07,14,16,26,30.10
2018,07,14,16,27,30.10
2018,07,14,16,28,30.20
2018,07,14,16,29,30.20
2018,07,14,16,30,30.20
2018,07,14,16,31,30.20
2018,07,14,16,32,30.20
2018,07,14,16,33,30.30
2018,07,14,16,34,30.30
2018,07,14,16,35,30.30
2018,07,14,16,36,30.30
2018,07,14,16,37,30.30
2018,07,14,16,38,30.30
2018,07,14,16,39,30.30
2018,07,14,16,40,30.40
2018,07,14,16,41,30.40
2018,07,14,16,42,30.50
2018,07,14,16,43,30.60
2018,07,14,16,44,30.70
2018,07,14,16,45,30.70
2018,07,14,16,46,30.70
2018,07,14,16,47,30.60
2018,07,14,16,48,30.60
2018,07,14,16,49,30.50
2018,07,14,16,50,30.50
2018,07,14,16,51,30.40
2018,07,14,16,52,30.40
2018,07,14,16,53,30.40
2018,07,14,16,54,30.40
2018,07,14,16,55,30.30
2018,07,14,16,56,30.30
2018,07,14,16,57,30.30
2018,07,14,16,58,30.30
2018,07,14,16,59,30.30
2018,07,14,17,00,30.30
2018,07,14,17,01,30.30
2018,07,14,17,02,30.30
2018,07,14,17,03,30.30
2018,07,14,17,04,30.30
2018,07,14,17,05,30.30
2018,07,14,17,06,30.30
2018,07,14,17,07,30.40
2018,07,14,17,08,30.40
2018,07,14,17,09,30.40
2018,07,14,17,10,30.50
2018,07,14,17,11,30.40
2018,07,14,17,12,30.40
2018,07,14,17,13,30.40
2018,07,14,17,14,30.30
2018,07,14,17,15,30.30
2018,07,14,17,16,30.30
2018,07,14,17,17,30.30
2018,07,14,17,18,30.30
2018,07,14,17,19,30.30